User: anonymous   Login
Location: Nag� el Ma?a??a
(24.0667°N, 32.8833°E)
Time: 10:21:14
(UTC+00:00)
Language:

SJ 16-02 - Orbit

View from above orbital plane
View from above orbital plane
View from above satellite
View from above satellite

Ground track
Ground track

The orbit data is extracted from the following two-line orbital elements,

1 41634U 16043A   22267.91220975  .00000779  00000-0  90882-4 0  9990
2 41634  75.0059 321.3363 0006880  99.7258 260.4706 14.86604184338437
Epoch (UTC): 24 September 2022 21:53:34
Eccentricity: 0.0006880
inclination: 75.0059°
perigee height: 604 km
apogee height: 613 km
right ascension of ascending node: 321.3363°
argument of perigee: 99.7258°
revolutions per day: 14.86604184
mean anomaly at epoch: 260.4706°
orbit number at epoch: 33843

The dashed part of the orbit path shows where the satellite is in the earth's shadow,  

DLR